Back to catalog

COSMOS 970 DEB

AliveLEO
NORAD 12866·DEBRIS·🇷🇺 Russia

Launched Dec 21, 1977 from Baikonur Cosmodrome

Loading…

Next Passes (next 24 hours)

TLE

FreshSource: Space-Track

Epoch: Sep 14, 2026, 14:33 UTC

1 12866U 77121AU  26257.60646182  .00000020  00000-0  12787-3 0  9996
2 12866  65.8162 129.0981 0110482 323.9733  57.8209 13.58518246316126

Track COSMOS 970 DEB in real time with AllMySat

Download on the App Store